#timestamp,LO_Frequency,Hit 
1502722815.4,286047002.5,N
1502722835.2,286047000.3,N
1502722855.1,286047000.3,N
1502722856.0,286047000.3,N
1502722875.8,286047002.6,N
1502722895.6,286047003.4,N
1502722915.5,286047003.1,N
1502722935.3,286047004.1,N
1502722955.1,286047002.6,N
1502722975.8,286047001.2,N
1502722995.7,286047001.9,N
1502723015.5,286047000.5,N
1502723035.3,286047001.1,N
1502723055.2,286046994.2,N
1502723075.9,286046987.5,P
1502723095.7,286046987.7,N
1502723115.6,286046982.9,N
1502723135.4,286046977.7,P
1502723155.3,286046985.3,N
1502723175.1,286046982.2,P
1502723176.0,286046982.2,P
1502723195.8,286046997.9,N
1502723215.7,286046991.8,N
1502723235.5,286046991.5,N
1502723255.3,286046992.5,N
1502723275.2,286046993.9,N
1502723295.9,286046996.7,N
1502723315.7,286046997.7,N
1502723335.5,286046999.5,N
1502723355.4,286046997.1,N
1502723375.2,286046998.0,N
1502723395.0,286046999.0,N
1502723395.9,286046999.0,N
1502723415.8,286047000.1,N
1502723435.6,286047003.7,N
1502723455.4,286047005.7,N
1502723475.3,286047007.6,N
1502723495.1,286047005.2,N
1502723515.8,286047003.0,N
1502723535.7,286047005.6,N
1502723555.5,286047004.9,N
1502723575.3,286047006.8,N
1502723595.2,286047008.8,N
1502723615.9,286047004.5,N
1502723635.7,286047003.1,N
1502723655.6,286047002.6,N
1502723675.4,286047000.8,N
1502723695.2,286046995.6,N
1502723715.0,286046994.2,N
1502723715.9,286046994.2,N
1502723735.8,286046990.4,N
1502723755.6,286046991.5,N
1502723775.4,286046992.6,N
1502723795.3,286046989.2,N
1502723815.1,286046991.3,N
1502723816.0,286046991.3,N
1502723835.8,286046989.6,N
1502723855.7,286046987.6,N
1502723875.5,286046987.7,N
1502723895.3,286046988.2,N
1502723915.2,286046983.8,N
1502723935.9,286046984.1,N
1502723955.7,286046986.2,N
1502723975.6,286046983.9,N
1502723995.4,286046986.2,N
1502724015.2,286046983.6,N
1502724035.0,286046983.2,N
1502724036.0,286046983.2,N
1502724055.8,286046981.3,N
1502724075.6,286046982.1,N
1502724095.4,286046985.6,N
1502724115.3,286046984.6,N
1502724135.1,286046984.1,N
1502724155.8,286046986.8,N
1502724175.7,286046983.1,N
1502724195.5,286046980.7,P
1502724215.3,286046992.3,N
1502724235.2,286046992.6,N
1502724255.0,286046994.8,N
1502724255.9,286046994.8,N
1502724275.7,286046995.9,N
1502724295.6,286046998.0,N
1502724315.4,286046997.2,N
1502724335.2,286046999.3,N
1502724355.1,286046994.6,N
1502724356.0,286046994.6,N
1502724375.8,286046990.3,N
1502724395.6,286046993.2,N
1502724415.5,286046990.4,N
1502724435.3,286046989.3,N
1502724455.1,286046988.0,N
1502724475.9,286046989.8,N
1502724495.7,286046984.7,P
1502724515.5,286046990.0,N
1502724535.4,286046987.0,P
1502724555.2,286046984.6,P
1502724575.0,286046992.5,P
1502724575.9,286046992.5,N
1502724595.8,286046992.8,N
1502724615.6,286046990.4,P
1502724635.5,286047000.6,P
1502724655.3,286047000.7,N
1502724675.1,286047002.0,N
1502724695.8,286047005.6,N
1502724715.7,286047009.7,N
1502724735.5,286047014.9,N
1502724755.3,286047023.5,N
1502724775.2,286047030.4,N
1502724795.9,286047034.2,N
1502724815.7,286047035.6,N
1502724835.6,286047039.3,N
1502724855.4,286047036.9,N
1502724875.2,286047039.6,N
1502724895.1,286047039.5,N
1502724896.0,286047039.5,N
1502724915.8,286047037.4,N
1502724935.6,286047036.3,N
1502724955.5,286047033.8,N
1502724975.3,286047034.7,N
1502724995.1,286047031.1,N
1502725015.9,286047029.1,N
1502725035.7,286047025.3,N
1502725055.5,286047029.3,N
1502725075.4,286047030.6,N
1502725095.2,286047030.0,N
1502725115.0,286047024.0,N
1502725115.9,286047024.0,N
1502725135.7,286047021.0,N
1502725155.6,286047019.3,N
1502725175.4,286047019.3,N
1502725195.2,286047020.0,N
1502725215.1,286047017.5,N
1502725216.0,286047017.5,N
1502725235.8,286047014.8,N
1502725255.6,286047011.1,N
1502725275.5,286047012.2,N
1502725295.3,286047011.1,N
1502725315.1,286047015.4,N
1502725335.9,286047012.0,N
1502725355.7,286047015.0,N
1502725375.5,286047017.4,N
1502725395.4,286047017.5,N
1502725415.2,286047024.1,N
1502725435.0,286047031.1,P
1502725435.9,286047031.1,P
1502725455.8,286047007.3,N
1502725475.6,286047004.5,N
1502725495.4,286047008.9,N
1502725515.3,286047008.7,N
1502725535.1,286047012.1,N
1502725536.0,286047012.1,N
1502725555.8,286047013.4,N
1502725575.7,286047012.2,N
1502725595.5,286047010.8,N
1502725615.3,286047009.2,N
1502725635.2,286047006.6,N
1502725655.9,286047006.1,N
1502725675.7,286047006.7,N
1502725695.6,286046999.7,N
1502725715.4,286046998.3,N
1502725735.2,286047000.9,N
1502725755.0,286046997.6,N
1502725755.9,286046997.6,N
1502725775.8,286046996.4,N
1502725795.6,286046993.3,N
1502725815.4,286046995.4,N
1502725835.3,286046997.6,N
1502725855.1,286046997.9,N
1502725875.8,286046996.8,N
1502725895.7,286046999.3,N
1502725915.5,286046996.5,N
1502725935.3,286046996.2,N
1502725955.2,286046996.3,N
1502725975.9,286046995.9,N
1502725995.7,286046991.8,N
1502726015.6,286046990.7,N
1502726035.4,286046991.2,N
1502726055.2,286046989.2,N
1502726075.1,286046991.2,N
1502726076.0,286046991.2,N
1502726095.8,286046990.3,N
1502726115.6,286046994.6,N
1502726135.5,286046997.9,N
1502726155.3,286047001.1,N
1502726175.1,286046997.4,N
1502726195.8,286046993.6,N
1502726215.7,286046995.8,N
1502726235.5,286046991.9,N
1502726255.3,286046996.4,N
1502726275.2,286046994.6,N
1502726295.0,286046991.9,N
1502726295.9,286046991.9,N
1502726315.7,286046996.3,N
1502726335.6,286046990.2,P
1502726355.4,286046995.4,N
1502726375.2,286046995.0,N
1502726395.1,286046996.4,N
1502726396.0,286046996.4,N
